GEFSGL_500_meanwind_114.txt.gz
Wind_Speed
7 9 10 12 12 14 15 16 17 18 18 19 20 21 21 21 21 21 22 22 21 22 22 23 23 24 24 25 26 27 27 28 28 29 29 29 29 30 31 32 32 33 34
8 9 10 11 12 13 14 15 16 17 18 19 19 20 20 21 21 21 21 21 22 21 22 23 24 25 26 27 27 28 29 30 30 31 31 31 32 33 34 35 36 37 37
10 10 11 12 12 14 15 15 16 18 19 20 20 20 20 21 21 21 21 22 22 22 23 23 24 25 26 26 27 28 29 31 31 32 33 33 34 35 36 38 39 40 41
12 12 13 14 14 15 15 16 17 18 19 19 19 20 21 21 21 22 22 23 24 24 24 25 25 26 26 27 27 28 29 30 31 33 34 35 37 38 39 40 42 43 43
13 14 14 15 16 16 17 17 17 18 19 19 19 20 21 22 22 23 24 25 25 26 26 26 26 27 28 29 30 31 31 32 33 34 35 37 39 40 41 42 43 44 45
15 15 16 16 17 17 18 19 19 20 21 21 21 21 22 23 24 25 26 26 27 27 27 27 27 27 28 29 30 30 31 33 34 35 37 39 40 40 41 43 45 46 48
16 17 17 17 18 18 20 21 21 21 21 22 22 22 23 24 25 26 27 26 26 27 27 27 27 27 27 29 30 31 33 34 36 37 38 40 42 43 44 46 48 49 51
19 19 19 20 20 20 21 22 22 22 22 23 22 22 22 23 24 25 25 25 26 27 27 28 28 29 30 31 32 33 35 36 37 39 41 43 45 45 47 49 51 53 55
21 20 19 20 20 21 22 21 22 23 23 23 23 23 23 23 24 25 25 25 26 27 28 29 30 32 32 33 34 35 37 38 40 42 43 45 46 49 51 52 54 56 57
21 21 20 20 20 21 21 22 24 24 24 24 25 25 25 25 25 26 27 27 27 27 29 30 32 32 33 35 36 38 39 40 42 44 46 48 49 51 52 54 55 57 58
23 22 22 21 21 22 22 23 23 24 24 25 25 25 26 26 27 27 27 27 28 29 30 32 33 34 35 36 38 40 41 43 45 46 48 50 51 52 53 55 56 57 59
24 24 24 24 23 23 24 24 25 26 27 27 26 27 28 28 27 27 28 29 30 31 32 32 34 35 37 38 39 41 43 44 46 47 49 50 51 52 53 54 55 56 57
25 25 25 25 25 25 25 26 26 27 27 27 27 28 29 29 30 31 31 32 33 34 35 36 37 38 38 39 41 42 44 45 46 47 48 49 50 51 51 52 52 53 54
26 26 26 27 26 26 26 26 27 27 27 28 28 28 29 30 32 33 34 34 35 36 36 38 38 38 39 39 41 42 44 44 44 45 46 47 47 48 48 49 50 50 51
27 26 27 26 26 26 26 26 27 28 28 28 28 29 30 30 31 31 31 33 35 35 35 36 37 38 38 39 40 41 42 42 42 43 43 44 45 45 45 46 47 47 46
26 26 26 26 25 26 27 27 28 28 28 29 29 29 29 30 31 31 31 32 33 33 33 34 35 36 37 39 39 40 40 40 40 40 41 41 42 42 43 44 44 43 42
26 26 27 26 26 26 27 27 27 27 28 27 28 29 29 30 30 30 30 30 31 32 32 33 34 35 36 37 37 38 37 37 38 38 39 39 40 40 40 40 40 39 38
26 26 27 27 26 25 25 26 26 26 26 27 28 29 29 28 28 28 29 30 31 32 32 32 33 33 34 35 35 35 35 36 36 37 37 37 37 37 38 37 36 35 35
25 25 25 25 25 25 25 25 24 25 26 26 27 27 26 27 28 28 29 30 30 30 30 31 32 32 32 33 33 34 34 35 35 35 35 34 34 35 35 34 33 33 32
24 23 23 23 24 24 23 23 24 24 24 24 25 26 26 27 27 27 27 27 28 29 29 30 30 30 31 32 32 32 33 33 33 32 32 32 32 32 31 31 31 31 31
21 21 21 21 21 21 21 21 22 22 22 23 23 23 24 25 25 26 26 28 28 28 28 29 29 30 30 30 30 31 31 31 30 30 29 29 29 29 29 29 29 29 29
19 20 20 21 21 20 19 20 21 21 22 22 22 22 23 25 26 27 27 27 27 27 28 28 28 29 29 29 29 29 29 28 28 27 27 27 27 27 27 27 28 28 28
17 17 18 18 19 19 19 20 20 20 21 21 22 23 25 26 26 26 26 26 26 26 27 27 27 27 27 27 27 27 26 26 26 25 25 25 25 26 26 26 27 27 28
15 15 16 16 17 17 18 19 20 20 21 22 23 25 25 25 25 25 25 25 25 26 25 25 25 25 25 25 25 25 25 24 24 24 24 24 24 25 25 26 26 27 27
13 14 15 17 18 18 19 20 20 21 22 23 24 24 24 24 24 25 25 25 25 25 24 24 24 24 24 24 24 24 23 23 23 23 23 23 24 25 25 26 26 27 27
14 15 16 17 18 18 19 19 21 22 22 23 23 23 24 24 24 25 25 25 24 24 24 24 23 23 23 23 23 23 22 22 22 23 23 23 24 25 25 26 27 27 28

GEFSGL_500_meanwind_120.txt.gz
Wind_Speed
8 8 8 9 10 12 13 13 14 15 16 17 18 18 18 19 19 19 20 20 21 21 21 22 22 22 21 21 22 24 25 25 26 26 27 27 27 28 29 29 29 30 31
9 10 9 10 10 11 12 13 14 15 16 17 18 19 19 19 19 19 20 20 21 21 22 23 23 23 23 24 24 25 26 27 27 27 27 28 28 29 31 31 31 32 33
11 11 11 11 11 12 12 14 15 15 16 16 17 19 19 19 19 19 20 20 21 22 22 23 24 24 25 26 26 27 27 28 28 28 28 29 30 31 32 34 34 35 36
13 13 13 13 13 13 14 14 15 16 16 17 18 18 19 20 20 21 22 22 22 23 24 25 25 26 27 27 28 28 28 28 29 30 30 31 32 33 34 35 35 36 37
14 15 14 15 15 15 15 15 15 15 16 16 18 19 20 21 21 22 22 22 23 23 25 26 27 28 29 30 30 30 30 30 31 31 32 33 33 34 34 35 36 37 39
16 16 16 16 16 16 16 17 17 16 17 17 18 19 20 20 21 22 23 24 24 24 26 27 28 29 30 29 29 30 30 31 31 31 32 33 34 36 37 37 38 40 42
18 17 17 16 17 18 18 18 19 19 19 19 19 20 21 21 23 23 23 23 24 25 27 28 28 28 28 29 29 30 30 31 31 32 34 35 37 37 39 40 41 43 44
20 20 19 19 19 19 19 20 20 20 21 21 21 21 22 22 22 23 24 25 26 27 28 28 28 27 27 29 30 30 31 32 33 34 35 36 38 39 40 42 44 45 46
22 22 22 21 21 20 20 20 21 21 22 22 22 22 22 23 24 24 26 26 27 27 27 28 28 28 29 29 31 31 32 33 34 35 36 37 39 40 42 43 45 46 47
24 23 23 22 22 21 21 21 21 22 23 23 23 23 23 24 24 26 26 26 27 27 28 28 29 30 30 30 31 32 34 35 35 36 38 39 40 41 43 44 45 46 47
24 24 24 23 23 23 23 22 22 22 22 22 22 23 24 24 25 26 26 26 27 27 28 28 29 30 31 32 33 34 35 36 37 38 39 40 41 42 43 43 44 45 45
26 26 26 25 24 24 23 22 22 22 22 23 23 24 24 25 25 26 26 26 26 27 28 29 30 31 32 33 34 35 36 37 37 38 39 40 41 41 42 42 42 43 44
27 27 27 26 25 24 24 24 24 24 24 24 24 25 25 25 25 26 26 26 27 27 28 29 30 31 32 34 34 35 36 37 37 38 39 39 40 40 40 40 41 42 43
29 28 27 26 26 26 26 26 25 25 25 25 25 26 26 26 27 27 27 26 27 28 30 31 31 32 33 34 35 35 35 36 37 38 39 39 39 38 38 39 40 41 42
30 29 28 27 27 27 27 27 27 26 26 26 26 27 27 27 27 27 27 28 29 30 30 30 32 32 33 33 33 33 34 35 36 37 37 36 37 38 38 39 39 40 40
31 30 29 29 28 28 28 28 27 27 26 27 27 27 27 27 27 26 27 28 29 30 30 30 30 31 31 31 31 32 34 35 35 35 35 35 35 36 37 37 37 38 37
31 30 29 28 28 28 28 28 27 27 28 27 27 27 27 28 28 28 28 28 28 28 29 29 30 30 30 30 31 32 33 33 33 32 32 33 34 34 35 35 35 35 35
31 30 29 29 28 28 28 28 28 27 27 27 26 26 27 28 28 28 28 28 28 29 29 30 30 30 30 31 31 31 31 31 31 31 31 32 32 33 33 33 33 33 33
30 29 28 28 28 28 28 28 28 27 26 26 26 27 27 26 26 27 28 28 29 29 30 30 29 29 29 29 29 29 29 29 30 30 30 31 31 31 31 31 32 32 32
29 28 27 27 27 27 27 27 26 26 26 26 26 26 26 26 26 27 28 28 28 28 28 28 28 27 27 28 28 29 29 29 29 29 30 30 30 30 30 30 30 30 30
27 27 26 26 26 26 25 25 25 24 25 25 25 25 26 27 27 27 27 27 26 26 27 27 27 27 28 28 28 28 28 28 28 29 29 29 29 29 30 29 29 29 28
25 25 25 25 24 24 23 23 24 24 24 24 24 25 26 26 25 25 25 26 26 27 27 28 28 28 27 27 27 28 28 27 28 28 28 28 29 29 29 28 28 27 27
23 22 21 21 21 21 22 22 22 23 23 24 24 25 25 25 25 25 26 27 27 28 28 28 28 27 27 27 27 27 27 27 27 27 27 28 28 28 27 27 26 26 26
18 17 17 17 18 19 21 21 22 22 24 24 24 25 25 25 25 26 27 27 28 28 28 27 27 27 27 26 27 27 27 27 27 27 27 27 27 26 26 26 26 26 27
16 16 16 17 18 18 19 20 21 22 22 23 23 24 24 25 26 27 28 28 28 28 27 27 26 26 27 27 27 27 27 26 26 26 26 26 26 26 26 25 26 26 27
14 15 16 17 18 18 19 20 21 21 21 22 22 23 25 26 27 28 28 28 28 27 26 26 26 26 27 27 27 27 26 26 26 26 26 26 25 25 25 25 26 26 27

GEFSGL_500_meanwind_126.txt.gz
Wind_Speed
5 4 5 6 7 8 8 9 10 12 13 13 14 16 16 17 16 16 16 16 17 19 19 19 19 19 19 20 20 20 20 21 21 21 22 23 23 24 25 26 27 27 28
6 6 6 6 7 8 9 10 11 12 13 14 15 15 16 17 17 17 17 17 18 19 19 19 20 20 20 21 22 22 22 23 23 23 24 25 25 26 27 28 29 30 30
7 7 7 8 8 9 9 10 11 12 12 13 14 14 15 16 17 17 18 19 19 20 21 21 21 21 22 23 23 23 23 24 25 25 26 27 27 28 29 29 30 31 33
8 8 9 9 9 10 10 11 11 12 12 13 14 15 16 16 18 18 19 18 19 20 22 22 23 23 23 25 25 24 25 26 27 27 28 29 30 30 30 31 32 33 33
10 10 10 10 10 10 11 12 13 13 14 15 16 16 16 17 18 19 20 20 21 22 23 23 24 24 24 25 25 26 26 27 28 29 29 30 30 31 31 32 33 34 35
12 12 11 11 11 12 12 13 14 14 15 15 16 17 17 18 19 20 20 20 21 21 21 22 23 24 24 24 25 26 27 27 28 28 29 30 31 32 32 33 33 35 36
14 14 13 13 13 13 14 14 14 15 16 17 17 17 18 19 19 19 20 21 21 21 21 22 23 24 25 26 26 26 26 27 27 28 29 30 31 32 33 34 35 37 39
15 15 15 15 15 15 16 15 15 16 18 19 19 19 19 20 20 21 22 22 23 23 23 23 23 24 25 25 26 27 27 27 28 29 29 30 31 33 34 36 37 38 39
16 16 16 16 17 17 17 16 17 17 18 19 19 20 21 21 22 22 23 23 23 23 24 24 23 24 25 25 26 26 27 27 28 29 30 31 32 34 35 36 38 40 42
18 17 17 17 18 18 19 18 18 18 19 19 20 21 21 21 21 22 23 23 23 23 24 24 24 24 25 25 25 27 27 28 28 30 32 33 34 36 37 37 39 41 42
19 19 19 19 19 19 19 19 19 20 20 20 21 21 21 22 22 22 23 23 23 24 24 24 24 25 25 25 26 27 28 28 29 31 33 35 36 36 37 38 39 40 42
22 21 22 21 21 21 21 21 20 21 21 21 21 21 22 22 22 22 22 22 22 23 23 24 24 25 26 27 28 28 29 30 31 32 34 36 36 37 37 38 39 40 41
24 24 24 23 23 23 22 22 22 23 23 22 23 23 23 23 23 22 22 22 23 24 24 25 26 27 28 28 29 29 30 30 32 33 35 36 36 36 36 37 38 39 40
27 26 25 25 24 24 23 23 24 24 24 23 23 23 23 23 23 24 24 24 24 25 25 26 27 28 28 29 30 30 30 31 32 33 34 34 34 35 36 37 37 37 38
29 28 27 27 26 26 25 25 25 25 25 25 25 25 25 25 25 25 24 24 24 25 26 26 27 28 28 29 29 30 31 32 32 33 33 33 34 35 35 35 36 36 36
31 30 29 28 28 27 27 27 27 27 27 26 26 26 26 25 25 24 24 24 24 25 26 26 27 27 28 28 28 29 30 31 32 32 32 32 33 33 33 33 33 33 34
32 31 30 30 29 29 28 28 28 28 28 28 27 26 25 25 25 25 25 25 25 25 26 26 27 27 28 28 29 30 30 31 31 32 32 32 32 32 32 32 32 32 33
33 32 31 31 31 30 30 29 29 28 27 27 26 26 25 25 25 25 25 25 26 25 26 26 27 28 28 29 30 30 30 30 30 32 32 32 32 32 32 32 32 32 31
33 32 31 31 31 31 31 30 29 28 28 27 26 26 26 26 26 25 25 26 26 26 26 27 28 29 30 30 30 29 29 30 30 31 32 31 31 32 32 31 31 31 31
32 32 31 30 30 29 29 29 28 28 28 27 27 26 26 25 25 25 25 25 26 26 27 28 28 29 29 28 28 29 29 30 30 31 31 31 31 32 31 30 30 30 29
31 30 29 29 28 28 27 27 27 27 27 27 26 25 25 25 25 25 26 26 26 27 28 28 28 28 28 28 29 30 31 31 31 31 31 32 31 30 29 29 29 28 28
28 27 27 26 26 26 26 26 25 25 25 25 24 24 24 24 25 25 26 26 27 27 28 28 28 28 29 30 30 31 32 31 31 31 31 30 29 28 28 28 27 27 27
26 26 25 25 24 24 24 24 24 23 22 22 23 23 24 25 25 25 26 27 28 28 29 29 29 29 30 31 31 31 31 31 31 31 30 28 28 27 27 27 27 27 26
22 22 22 22 22 22 22 22 21 21 21 22 24 24 24 25 26 27 28 29 30 30 30 29 30 30 30 30 31 31 31 30 30 29 28 27 27 27 27 27 27 27 27
19 18 18 18 19 19 20 20 20 21 22 23 24 25 25 26 27 28 29 29 29 29 28 28 29 29 29 30 30 30 29 29 28 28 27 27 27 27 27 27 27 27 27
15 15 15 15 16 16 17 18 19 20 22 23 24 25 26 27 27 27 27 27 27 27 27 28 28 29 29 29 29 28 28 28 28 27 27 27 27 27 27 27 27 27 28

GEFSGL_500_meanwind_132.txt.gz
Wind_Speed
6 6 6 7 7 7 8 10 11 13 13 13 15 16 16 17 17 18 19 19 19 19 19 20 21 21 21 22 23 22 22 23 23 24 25 26 26 26 26 27 28 29 29
6 6 6 7 8 8 9 10 11 12 13 14 14 16 17 17 18 18 19 19 20 19 20 21 22 22 22 23 24 24 24 24 25 26 27 27 27 28 29 29 30 31 32
6 6 7 8 8 9 10 10 12 12 13 15 16 16 17 18 18 19 19 19 20 20 21 22 23 24 24 24 25 26 26 26 27 27 27 28 29 31 31 32 33 33 34
8 7 8 8 9 9 10 11 13 14 15 15 16 16 17 18 19 19 20 21 21 22 22 23 24 26 26 26 27 27 28 28 28 28 29 30 31 31 32 33 34 34 35
10 9 10 10 10 10 11 12 13 14 15 16 16 17 17 18 19 20 22 22 23 24 24 25 25 26 26 27 28 28 29 29 29 30 30 31 32 33 33 34 35 36 37
11 11 12 12 12 12 13 13 14 15 16 17 18 18 19 20 20 21 23 24 25 25 26 26 26 26 27 27 27 28 28 29 29 30 31 32 32 33 33 34 35 36 36
14 13 14 14 14 14 15 16 16 17 18 18 19 20 20 20 21 22 24 25 26 26 27 28 27 28 28 27 27 27 28 29 30 30 31 32 32 32 33 33 34 35 36
15 16 16 16 16 16 16 16 17 17 18 18 19 20 21 21 22 22 23 24 24 25 26 27 28 29 30 29 29 29 28 28 29 30 31 32 32 33 33 33 34 35 37
17 17 18 18 18 17 17 17 18 19 19 19 20 20 21 22 22 23 24 25 26 26 27 28 29 29 29 29 29 28 28 29 29 30 30 31 31 32 33 35 35 37 38
18 18 18 18 19 19 18 19 20 20 20 21 21 22 23 24 24 25 25 25 25 26 27 27 27 28 29 29 28 28 29 29 30 30 32 32 33 34 35 36 37 38 39
20 20 19 20 19 19 20 20 21 22 22 23 24 24 24 25 25 26 26 26 26 26 26 27 28 28 29 28 28 29 29 29 31 32 33 34 35 36 36 36 37 38 39
22 22 22 21 21 21 21 22 22 23 24 24 24 25 25 26 26 27 27 27 26 27 27 28 28 28 29 29 29 29 30 31 32 32 33 35 35 36 36 36 37 38 38
25 24 24 23 23 24 24 24 24 25 25 25 25 25 26 26 27 28 28 29 29 29 29 29 28 29 29 30 30 31 32 32 33 33 34 35 35 35 35 36 36 37 37
27 26 25 26 26 26 26 26 26 26 26 27 26 27 27 28 28 28 29 29 29 29 30 29 30 30 30 30 30 31 32 33 33 33 34 34 34 34 35 35 36 36 37
29 28 28 28 28 28 28 28 28 28 28 28 29 29 29 29 29 30 29 29 29 30 30 30 30 30 30 30 31 32 32 32 32 33 32 33 34 34 35 36 36 36 37
30 30 30 30 30 30 30 30 30 30 30 30 30 31 31 31 31 31 30 30 30 30 30 30 30 30 31 31 31 31 31 31 32 32 33 33 34 34 35 35 35 36 37
32 32 33 32 32 31 32 32 31 31 31 31 31 32 32 32 32 32 31 31 31 30 30 30 30 30 30 30 30 30 31 32 33 33 34 35 35 35 35 35 35 35 36
34 34 34 34 34 33 33 32 32 32 32 32 32 32 32 32 32 32 32 31 31 30 30 31 31 31 30 31 31 32 33 33 34 35 35 35 35 34 34 34 34 34 35
35 35 35 35 34 33 32 32 31 32 32 32 31 31 32 32 32 32 32 31 31 31 31 30 30 30 31 32 33 33 34 34 35 35 35 35 34 33 33 33 33 34 34
35 35 35 34 33 32 32 32 32 32 32 31 31 31 32 32 32 32 31 30 30 30 29 29 30 30 31 32 33 33 34 34 35 34 34 34 33 33 33 33 34 34 34
34 34 33 32 32 31 31 31 31 31 31 31 31 31 30 30 30 30 30 29 29 29 29 30 30 31 31 31 32 33 34 34 34 34 34 33 33 33 33 33 34 34 33
33 32 32 32 32 31 31 31 30 30 30 30 30 30 30 30 30 30 29 29 29 29 29 30 31 32 32 32 32 33 34 34 34 33 33 32 32 32 33 33 33 33 32
30 30 30 31 30 30 30 29 29 28 29 29 29 29 29 29 29 29 29 29 30 30 30 31 32 32 33 33 33 34 33 33 32 32 31 31 32 33 33 33 32 32 30
28 28 28 28 28 27 27 27 27 27 27 27 27 28 28 27 27 27 28 28 29 30 30 31 32 33 33 33 32 32 31 31 31 31 31 32 32 32 32 31 30 29 29
26 26 26 26 25 25 25 25 25 25 24 24 25 25 25 25 25 26 27 28 29 29 30 31 32 32 31 31 31 31 31 31 31 31 31 31 31 30 30 29 28 28 28
24 24 23 23 22 22 22 22 22 22 23 24 24 24 25 25 26 27 27 27 28 28 29 29 30 30 30 31 30 30 30 29 29 29 29 29 29 29 28 28 28 28 29